カタログに戻る

STARLINK-37417

運用中通信SSO
NORAD 68770·PAYLOAD·🇺🇸 United States

打ち上げ Apr 19, 2026 から Vandenberg Space Force Base

Loading…

次のパス (今後24時間)

TLE

最新Source: CelesTrak SupGP

元期: Sep 15, 2026, 04:11 UTC

1 68770C 26086E   26258.17479167 -.00058056  00000+0 -18026-2 0  2587
2 68770  97.2839 293.6420 0000964  93.2927   5.9879 15.33462725    12

AllMySatでSTARLINK-37417をリアルタイム追跡

Download on the App Store